Precipitable_Water
0.29 0.20 0.17 0.14 0.14 0.14 0.14 0.14 0.13 0.13 0.13 0.13 0.13 0.12 0.12 0.13 0.14 0.16 0.17 0.18 0.19 0.19 0.19 0.21 0.21 0.21 0.20 0.29 0.47 0.58 0.71 0.71 0.72 0.77 0.79 0.83 0.88 0.92 0.94 0.95 0.95 0.99 1.02 1.15 1.18 1.23 1.24 1.28 1.34 1.32 1.30 1.26 1.26 1.26 1.22 1.16 1.15 1.16 1.19 1.19 1.14 1.20 1.23 1.19 1.14 1.10 1.06 0.98 0.96 0.96 0.96 0.97 1.04 1.07 1.12 1.14 1.19 1.21 1.22 1.23 1.22 1.20 1.18 1.16 1.16 1.19
0.28 0.19 0.18 0.18 0.18 0.17 0.16 0.16 0.15 0.14 0.13 0.13 0.12 0.12 0.11 0.12 0.12 0.15 0.16 0.18 0.19 0.17 0.18 0.20 0.20 0.20 0.20 0.25 0.43 0.59 0.63 0.65 0.73 0.75 0.77 0.81 0.87 0.91 0.92 0.92 0.93 1.01 1.13 1.16 1.16 1.22 1.26 1.29 1.34 1.33 1.28 1.23 1.12 1.13 1.14 1.11 1.12 1.16 1.20 1.17 1.17 1.19 1.20 1.18 1.15 1.10 1.08 1.06 1.01 0.95 0.95 0.98 1.02 1.06 1.07 1.10 1.16 1.19 1.22 1.23 1.22 1.20 1.18 1.18 1.20 1.22
0.21 0.18 0.20 0.23 0.22 0.20 0.18 0.17 0.16 0.14 0.12 0.13 0.12 0.11 0.11 0.11 0.12 0.15 0.16 0.18 0.18 0.17 0.16 0.18 0.18 0.18 0.19 0.22 0.39 0.53 0.56 0.58 0.66 0.70 0.74 0.80 0.87 0.91 0.94 0.93 0.93 0.99 1.02 1.09 1.14 1.19 1.23 1.26 1.29 1.26 1.22 1.20 1.18 1.10 1.08 1.13 1.12 1.14 1.15 1.17 1.18 1.17 1.14 1.14 1.15 1.11 1.06 1.08 1.09 1.04 1.01 1.02 1.03 1.13 1.17 1.18 1.22 1.23 1.21 1.21 1.21 1.18 1.18 1.20 1.21 1.21
0.17 0.19 0.22 0.24 0.23 0.19 0.18 0.18 0.16 0.14 0.13 0.12 0.12 0.11 0.09 0.11 0.10 0.10 0.14 0.17 0.18 0.17 0.16 0.18 0.17 0.18 0.20 0.21 0.32 0.48 0.51 0.55 0.63 0.69 0.75 0.81 0.82 0.85 0.86 0.83 0.86 0.93 0.98 1.01 1.07 1.11 1.21 1.24 1.25 1.20 1.13 1.14 1.16 1.12 1.07 1.09 1.10 1.14 1.15 1.16 1.16 1.14 1.13 1.12 1.14 1.13 1.13 1.12 1.12 1.12 1.09 1.09 1.08 1.05 1.13 1.15 1.19 1.19 1.18 1.15 1.17 1.18 1.18 1.18 1.17 1.20
0.17 0.21 0.24 0.23 0.22 0.20 0.17 0.17 0.16 0.14 0.12 0.12 0.12 0.11 0.10 0.10 0.11 0.12 0.13 0.16 0.17 0.17 0.18 0.18 0.17 0.18 0.19 0.18 0.22 0.41 0.54 0.54 0.61 0.71 0.78 0.86 0.92 0.97 1.00 0.98 0.94 0.90 0.97 1.01 1.06 1.11 1.16 1.17 1.16 1.11 1.08 1.12 1.10 1.10 1.05 1.06 1.10 1.14 1.15 1.17 1.17 1.15 1.13 1.13 1.13 1.12 1.13 1.11 1.09 1.08 1.08 1.08 1.06 1.08 1.06 1.04 1.05 1.10 1.13 1.12 1.11 1.12 1.16 1.16 1.16 1.21
0.19 0.22 0.24 0.21 0.20 0.20 0.18 0.16 0.15 0.14 0.11 0.12 0.13 0.12 0.12 0.12 0.12 0.12 0.14 0.15 0.14 0.14 0.17 0.17 0.14 0.14 0.17 0.18 0.18 0.26 0.43 0.52 0.63 0.67 0.73 0.83 0.89 0.96 0.96 0.97 1.03 1.09 1.10 1.04 1.04 1.08 1.13 1.17 1.16 1.12 1.09 1.08 1.11 1.10 1.10 1.11 1.13 1.16 1.17 1.18 1.18 1.16 1.14 1.10 1.10 1.12 1.10 1.06 1.01 0.96 0.90 0.85 0.87 0.86 0.91 0.91 0.94 1.01 1.04 1.05 1.12 1.15 1.16 1.16 1.21 1.26
0.18 0.21 0.23 0.20 0.20 0.19 0.18 0.17 0.17 0.16 0.12 0.11 0.11 0.14 0.13 0.13 0.13 0.14 0.15 0.15 0.12 0.11 0.16 0.19 0.14 0.13 0.16 0.16 0.18 0.22 0.32 0.39 0.56 0.64 0.69 0.77 0.83 0.91 0.95 0.99 1.01 1.03 1.05 1.11 1.10 1.11 1.12 1.14 1.10 1.07 1.06 1.09 1.10 1.15 1.17 1.14 1.15 1.16 1.16 1.16 1.16 1.15 1.12 1.10 1.10 1.09 1.05 0.99 0.98 0.95 0.92 0.90 0.89 0.86 0.94 1.02 1.07 1.07 1.11 1.14 1.13 1.15 1.19 1.21 1.19 1.19
0.18 0.18 0.20 0.22 0.20 0.19 0.18 0.16 0.18 0.16 0.13 0.10 0.14 0.14 0.14 0.13 0.13 0.15 0.17 0.16 0.14 0.16 0.17 0.19 0.17 0.14 0.13 0.15 0.18 0.20 0.25 0.34 0.45 0.58 0.69 0.74 0.78 0.83 0.92 0.98 1.02 1.05 1.05 1.03 1.02 1.05 1.10 1.10 1.05 1.01 1.06 1.10 1.13 1.18 1.18 1.14 1.13 1.11 1.13 1.13 1.14 1.14 1.12 1.10 1.10 1.07 1.06 0.99 0.97 0.95 0.94 0.94 0.94 0.93 0.94 1.02 1.06 1.13 1.16 1.15 1.15 1.16 1.18 1.20 1.18 1.16
0.18 0.16 0.18 0.20 0.20 0.19 0.17 0.18 0.19 0.19 0.14 0.13 0.14 0.15 0.14 0.14 0.14 0.17 0.17 0.17 0.17 0.15 0.13 0.15 0.18 0.14 0.13 0.15 0.21 0.21 0.20 0.28 0.38 0.49 0.63 0.72 0.77 0.82 0.88 0.97 1.05 1.10 1.08 1.05 1.02 1.01 1.04 1.06 1.08 1.10 1.09 1.16 1.20 1.19 1.16 1.11 1.11 1.15 1.17 1.16 1.16 1.13 1.12 1.13 1.13 1.10 1.10 1.06 1.01 0.96 0.94 0.93 0.99 1.01 1.03 1.08 1.12 1.12 1.16 1.12 1.15 1.15 1.16 1.15 1.16 1.15
0.20 0.18 0.18 0.20 0.20 0.18 0.20 0.21 0.21 0.20 0.15 0.16 0.16 0.16 0.16 0.15 0.16 0.17 0.18 0.17 0.17 0.15 0.12 0.14 0.17 0.13 0.12 0.15 0.19 0.24 0.21 0.26 0.35 0.46 0.56 0.64 0.71 0.80 0.89 1.00 1.07 1.11 1.11 1.10 1.06 1.05 1.07 1.10 1.14 1.20 1.22 1.23 1.23 1.27 1.25 1.19 1.16 1.17 1.18 1.16 1.14 1.14 1.15 1.15 1.14 1.12 1.09 1.07 1.04 0.99 0.98 0.96 0.99 1.04 1.07 1.10 1.09 1.11 1.15 1.13 1.12 1.13 1.09 1.10 1.11 1.13
0.23 0.22 0.21 0.20 0.19 0.21 0.22 0.22 0.22 0.21 0.19 0.19 0.17 0.14 0.14 0.15 0.15 0.18 0.19 0.18 0.17 0.13 0.12 0.16 0.18 0.16 0.12 0.14 0.18 0.19 0.24 0.29 0.37 0.47 0.56 0.65 0.74 0.81 0.89 0.95 1.01 1.05 1.06 1.06 1.06 1.08 1.15 1.23 1.25 1.32 1.30 1.30 1.31 1.31 1.28 1.25 1.18 1.16 1.15 1.14 1.12 1.14 1.16 1.15 1.13 1.13 1.11 1.12 1.10 1.06 1.06 1.05 1.04 1.09 1.10 1.08 1.08 1.11 1.12 1.10 1.11 1.08 1.07 1.07 1.07 1.10
0.21 0.23 0.20 0.20 0.23 0.24 0.25 0.22 0.24 0.24 0.22 0.18 0.15 0.13 0.13 0.13 0.16 0.16 0.17 0.20 0.15 0.11 0.14 0.18 0.18 0.18 0.12 0.14 0.21 0.30 0.38 0.40 0.38 0.41 0.50 0.60 0.67 0.76 0.86 0.95 1.02 1.05 1.05 1.06 1.06 1.04 1.11 1.18 1.25 1.29 1.24 1.30 1.34 1.33 1.31 1.30 1.23 1.17 1.16 1.14 1.10 1.12 1.12 1.14 1.16 1.17 1.17 1.17 1.17 1.16 1.15 1.12 1.13 1.12 1.11 1.08 1.06 1.09 1.07 1.07 1.04 1.07 1.07 1.06 1.08 1.10
0.17 0.19 0.23 0.22 0.23 0.24 0.23 0.21 0.22 0.23 0.22 0.19 0.17 0.14 0.11 0.10 0.11 0.11 0.15 0.14 0.13 0.11 0.15 0.20 0.20 0.17 0.15 0.21 0.28 0.34 0.39 0.42 0.47 0.42 0.47 0.54 0.63 0.74 0.82 0.92 1.01 1.06 1.06 1.05 1.03 1.04 1.09 1.07 1.05 1.08 1.15 1.25 1.28 1.33 1.30 1.26 1.20 1.15 1.12 1.12 1.07 1.07 1.10 1.11 1.16 1.16 1.18 1.18 1.18 1.18 1.17 1.15 1.15 1.12 1.10 1.10 1.09 1.10 1.05 1.03 1.00 1.01 1.00 1.05 1.05 1.08
0.15 0.19 0.21 0.22 0.23 0.23 0.24 0.19 0.19 0.18 0.19 0.18 0.16 0.14 0.11 0.09 0.09 0.08 0.12 0.15 0.15 0.15 0.18 0.20 0.22 0.16 0.21 0.28 0.42 0.36 0.44 0.50 0.55 0.59 0.55 0.55 0.61 0.70 0.81 0.93 1.00 1.04 1.05 1.05 1.05 1.08 1.09 1.07 1.11 1.20 1.26 1.30 1.30 1.30 1.26 1.22 1.16 1.12 1.09 1.09 1.06 1.05 1.10 1.12 1.14 1.15 1.15 1.15 1.16 1.17 1.15 1.14 1.13 1.11 1.11 1.09 1.04 1.03 1.01 0.99 0.96 0.97 0.98 1.00 1.01 1.02
0.12 0.13 0.17 0.21 0.19 0.24 0.23 0.22 0.20 0.19 0.18 0.18 0.18 0.16 0.12 0.11 0.09 0.08 0.11 0.11 0.12 0.13 0.17 0.23 0.18 0.14 0.17 0.22 0.43 0.48 0.53 0.58 0.64 0.68 0.75 0.80 0.76 0.78 0.88 0.95 0.99 1.03 1.04 1.06 1.07 1.10 1.10 1.12 1.16 1.21 1.24 1.31 1.27 1.27 1.25 1.22 1.16 1.11 1.07 1.07 1.05 1.06 1.11 1.12 1.12 1.13 1.12 1.13 1.15 1.15 1.14 1.13 1.13 1.10 1.07 1.05 1.02 1.00 0.98 0.98 0.95 0.98 1.01 1.00 1.01 1.01
0.13 0.13 0.19 0.24 0.24 0.25 0.22 0.24 0.25 0.23 0.20 0.19 0.19 0.18 0.14 0.12 0.15 0.12 0.14 0.15 0.15 0.15 0.16 0.19 0.20 0.37 0.32 0.55 0.59 0.54 0.56 0.61 0.69 0.72 0.77 0.77 0.85 0.87 0.86 0.90 0.95 0.99 1.00 1.03 1.07 1.10 1.17 1.24 1.23 1.24 1.26 1.26 1.24 1.25 1.25 1.22 1.18 1.10 1.07 1.08 1.09 1.08 1.09 1.11 1.11 1.11 1.12 1.13 1.14 1.14 1.13 1.13 1.11 1.07 1.03 0.98 0.98 0.97 0.98 0.97 0.97 0.97 0.99 1.00 1.00 1.00
0.15 0.13 0.18 0.24 0.26 0.24 0.23 0.25 0.24 0.26 0.17 0.18 0.18 0.14 0.14 0.17 0.17 0.16 0.18 0.20 0.19 0.17 0.16 0.32 0.26 0.34 0.53 0.53 0.59 0.58 0.56 0.59 0.66 0.74 0.78 0.80 0.86 0.88 0.86 0.91 0.94 0.98 0.98 1.03 1.05 1.06 1.12 1.14 1.25 1.26 1.24 1.26 1.26 1.23 1.21 1.19 1.16 1.10 1.09 1.08 1.08 1.10 1.11 1.11 1.12 1.10 1.10 1.11 1.10 1.10 1.10 1.08 1.03 0.99 0.94 0.92 0.93 0.94 0.96 0.97 0.98 0.97 0.97 0.97 0.96 0.94
0.14 0.14 0.18 0.21 0.22 0.25 0.26 0.26 0.27 0.26 0.25 0.21 0.15 0.16 0.20 0.22 0.20 0.16 0.13 0.17 0.16 0.14 0.18 0.28 0.22 0.26 0.26 0.22 0.56 0.57 0.55 0.57 0.64 0.71 0.77 0.81 0.86 0.85 0.88 0.92 0.95 0.97 1.01 1.05 1.09 1.12 1.15 1.16 1.18 1.21 1.23 1.21 1.24 1.22 1.18 1.17 1.16 1.12 1.08 1.06 1.04 1.05 1.05 1.08 1.08 1.08 1.09 1.08 1.07 1.06 1.04 1.01 0.99 0.96 0.95 0.94 0.93 0.94 0.94 0.95 0.96 0.95 0.92 0.91 0.93 0.93
0.20 0.16 0.17 0.20 0.23 0.26 0.27 0.28 0.27 0.28 0.28 0.23 0.18 0.22 0.16 0.14 0.13 0.16 0.16 0.13 0.14 0.14 0.18 0.25 0.30 0.28 0.27 0.31 0.46 0.47 0.51 0.54 0.61 0.69 0.74 0.78 0.83 0.84 0.88 0.93 0.97 1.01 1.03 1.03 1.05 1.10 1.15 1.13 1.14 1.17 1.24 1.24 1.23 1.23 1.21 1.20 1.17 1.14 1.11 1.09 1.06 1.02 1.03 1.05 1.07 1.07 1.07 1.08 1.04 1.00 0.98 0.97 0.96 0.95 0.94 0.93 0.93 0.93 0.91 0.90 0.89 0.88 0.90 0.93 0.94 0.96
0.22 0.17 0.19 0.22 0.23 0.26 0.27 0.26 0.21 0.24 0.27 0.28 0.26 0.21 0.19 0.17 0.14 0.14 0.15 0.18 0.17 0.15 0.17 0.22 0.29 0.23 0.34 0.40 0.46 0.43 0.52 0.55 0.59 0.64 0.68 0.74 0.79 0.83 0.87 0.91 0.95 0.99 1.03 1.04 1.05 1.10 1.13 1.16 1.15 1.18 1.18 1.20 1.21 1.21 1.21 1.18 1.14 1.09 1.08 1.06 1.03 1.03 1.03 1.03 1.02 1.03 1.03 1.02 0.98 0.96 0.96 0.95 0.95 0.95 0.93 0.93 0.92 0.90 0.88 0.87 0.87 0.89 0.90 0.93 0.96 0.98
0.21 0.23 0.19 0.23 0.26 0.26 0.22 0.25 0.22 0.24 0.23 0.23 0.23 0.20 0.19 0.16 0.21 0.18 0.21 0.18 0.17 0.16 0.17 0.20 0.21 0.25 0.36 0.47 0.50 0.50 0.54 0.57 0.58 0.61 0.68 0.75 0.80 0.85 0.88 0.92 0.95 0.99 1.02 1.05 1.06 1.09 1.13 1.13 1.15 1.17 1.18 1.19 1.21 1.20 1.19 1.16 1.11 1.07 1.04 1.01 1.00 0.96 0.97 0.97 0.99 0.98 0.95 0.94 0.93 0.94 0.93 0.93 0.94 0.93 0.94 0.92 0.91 0.88 0.86 0.86 0.88 0.90 0.93 0.95 0.93 0.94
0.22 0.22 0.21 0.24 0.22 0.22 0.23 0.27 0.27 0.27 0.27 0.25 0.23 0.21 0.20 0.16 0.15 0.14 0.15 0.20 0.20 0.18 0.19 0.19 0.17 0.25 0.39 0.54 0.58 0.59 0.66 0.67 0.71 0.70 0.70 0.75 0.81 0.86 0.89 0.95 0.98 0.99 1.01 1.06 1.06 1.09 1.11 1.11 1.13 1.13 1.14 1.15 1.14 1.13 1.12 1.11 1.05 0.99 0.96 0.97 0.95 0.93 0.92 0.92 0.91 0.90 0.90 0.92 0.94 0.93 0.93 0.92 0.93 0.93 0.91 0.88 0.87 0.84 0.83 0.84 0.87 0.90 0.91 0.87 0.88 0.88
0.24 0.26 0.25 0.22 0.23 0.24 0.27 0.30 0.31 0.31 0.30 0.28 0.26 0.23 0.23 0.20 0.18 0.15 0.13 0.15 0.18 0.20 0.26 0.25 0.20 0.23 0.49 0.58 0.64 0.66 0.70 0.71 0.73 0.75 0.75 0.79 0.83 0.87 0.92 0.96 1.00 1.03 1.03 1.04 1.06 1.07 1.08 1.10 1.11 1.10 1.09 1.08 1.07 1.06 1.04 1.02 0.97 0.95 0.93 0.92 0.91 0.91 0.92 0.91 0.90 0.92 0.92 0.92 0.91 0.90 0.91 0.92 0.90 0.89 0.86 0.83 0.82 0.80 0.82 0.84 0.85 0.87 0.84 0.83 0.82 0.84
0.27 0.23 0.23 0.24 0.28 0.30 0.33 0.34 0.34 0.33 0.31 0.28 0.27 0.28 0.25 0.21 0.20 0.17 0.16 0.18 0.17 0.20 0.21 0.22 0.17 0.27 0.51 0.64 0.68 0.70 0.74 0.75 0.78 0.78 0.76 0.81 0.87 0.92 0.94 0.97 0.98 0.98 1.01 1.04 1.05 1.06 1.07 1.07 1.07 1.04 1.03 1.01 1.00 0.99 0.98 0.95 0.92 0.91 0.91 0.90 0.90 0.90 0.90 0.90 0.90 0.89 0.92 0.92 0.90 0.91 0.90 0.89 0.88 0.85 0.82 0.79 0.80 0.79 0.80 0.81 0.82 0.83 0.81 0.79 0.80 0.79
0.22 0.24 0.24 0.23 0.22 0.25 0.27 0.31 0.30 0.32 0.31 0.27 0.26 0.27 0.26 0.25 0.23 0.22 0.21 0.23 0.17 0.19 0.19 0.18 0.16 0.22 0.48 0.65 0.70 0.70 0.72 0.72 0.74 0.80 0.82 0.80 0.87 0.92 0.94 0.95 0.97 0.98 0.99 1.00 1.00 1.02 1.04 1.03 1.02 1.00 1.00 0.99 0.97 0.96 0.94 0.92 0.90 0.89 0.89 0.89 0.89 0.89 0.91 0.90 0.92 0.90 0.89 0.90 0.87 0.88 0.86 0.85 0.84 0.81 0.79 0.78 0.79 0.79 0.80 0.79 0.78 0.79 0.77 0.77 0.77 0.80
0.23 0.25 0.23 0.20 0.19 0.18 0.18 0.19 0.22 0.24 0.26 0.28 0.30 0.27 0.27 0.25 0.23 0.21 0.18 0.20 0.16 0.21 0.21 0.18 0.19 0.33 0.51 0.62 0.65 0.68 0.69 0.70 0.76 0.79 0.84 0.87 0.87 0.87 0.90 0.93 0.94 0.95 0.95 0.97 0.98 1.00 1.00 1.01 1.02 0.99 0.99 0.97 0.95 0.94 0.93 0.91 0.90 0.89 0.89 0.89 0.89 0.89 0.89 0.90 0.91 0.90 0.90 0.89 0.86 0.85 0.84 0.82 0.80 0.78 0.78 0.78 0.78 0.78 0.76 0.76 0.74 0.74 0.75 0.76 0.76 0.79
0.24 0.27 0.25 0.25 0.23 0.23 0.27 0.30 0.34 0.35 0.32 0.26 0.29 0.29 0.26 0.26 0.26 0.24 0.22 0.19 0.16 0.22 0.19 0.23 0.24 0.31 0.40 0.51 0.57 0.63 0.65 0.64 0.68 0.74 0.79 0.81 0.84 0.86 0.89 0.89 0.92 0.93 0.94 0.94 0.95 0.96 0.98 0.99 0.97 0.97 0.97 0.96 0.93 0.93 0.92 0.91 0.89 0.88 0.87 0.87 0.89 0.90 0.89 0.89 0.90 0.90 0.88 0.87 0.85 0.83 0.81 0.79 0.77 0.79 0.79 0.78 0.76 0.76 0.74 0.73 0.72 0.72 0.71 0.74 0.75 0.76
0.26 0.23 0.25 0.26 0.27 0.27 0.32 0.35 0.38 0.37 0.33 0.33 0.30 0.28 0.30 0.25 0.25 0.23 0.20 0.18 0.21 0.21 0.18 0.26 0.32 0.27 0.33 0.42 0.51 0.58 0.64 0.67 0.71 0.73 0.77 0.81 0.82 0.83 0.86 0.88 0.90 0.90 0.91 0.93 0.92 0.92 0.93 0.95 0.96 0.95 0.95 0.94 0.91 0.93 0.93 0.92 0.90 0.88 0.87 0.86 0.88 0.88 0.87 0.87 0.88 0.89 0.87 0.85 0.83 0.80 0.79 0.79 0.79 0.79 0.78 0.77 0.76 0.75 0.74 0.73 0.72 0.72 0.74 0.76 0.75 0.75
0.24 0.23 0.28 0.28 0.31 0.33 0.37 0.38 0.41 0.40 0.38 0.37 0.34 0.33 0.29 0.27 0.25 0.22 0.22 0.24 0.24 0.19 0.18 0.26 0.32 0.28 0.34 0.43 0.49 0.52 0.57 0.60 0.65 0.72 0.78 0.81 0.83 0.84 0.84 0.84 0.85 0.86 0.87 0.88 0.91 0.93 0.94 0.93 0.93 0.93 0.94 0.93 0.92 0.92 0.92 0.91 0.89 0.88 0.87 0.88 0.88 0.88 0.88 0.89 0.87 0.86 0.85 0.83 0.81 0.80 0.81 0.80 0.80 0.80 0.78 0.77 0.76 0.75 0.74 0.74 0.74 0.75 0.76 0.76 0.76 0.77
0.27 0.26 0.31 0.31 0.32 0.34 0.38 0.39 0.39 0.37 0.40 0.38 0.36 0.36 0.38 0.32 0.27 0.25 0.25 0.27 0.25 0.24 0.25 0.30 0.33 0.31 0.39 0.45 0.55 0.63 0.70 0.73 0.77 0.82 0.83 0.81 0.81 0.82 0.82 0.81 0.81 0.83 0.85 0.88 0.91 0.92 0.92 0.92 0.92 0.92 0.93 0.93 0.92 0.92 0.92 0.91 0.88 0.87 0.86 0.86 0.87 0.87 0.89 0.90 0.87 0.85 0.83 0.82 0.82 0.82 0.82 0.81 0.80 0.79 0.78 0.78 0.76 0.76 0.76 0.75 0.76 0.76 0.76 0.77 0.77 0.78
0.29 0.30 0.34 0.32 0.31 0.33 0.38 0.40 0.40 0.38 0.38 0.36 0.39 0.40 0.38 0.36 0.32 0.31 0.29 0.31 0.31 0.28 0.32 0.34 0.37 0.38 0.52 0.63 0.66 0.74 0.77 0.80 0.80 0.78 0.78 0.80 0.81 0.80 0.79 0.79 0.81 0.83 0.85 0.87 0.89 0.88 0.88 0.88 0.89 0.91 0.91 0.92 0.93 0.94 0.92 0.90 0.89 0.88 0.87 0.86 0.86 0.86 0.88 0.88 0.85 0.84 0.83 0.82 0.83 0.82 0.81 0.80 0.79 0.79 0.78 0.78 0.77 0.77 0.76 0.76 0.77 0.77 0.77 0.78 0.79 0.79
0.32 0.34 0.36 0.32 0.27 0.30 0.36 0.36 0.36 0.36 0.37 0.37 0.37 0.37 0.37 0.36 0.31 0.34 0.28 0.31 0.27 0.28 0.32 0.35 0.32 0.37 0.54 0.64 0.68 0.73 0.76 0.76 0.74 0.76 0.78 0.79 0.81 0.81 0.79 0.79 0.81 0.82 0.84 0.85 0.86 0.85 0.85 0.85 0.87 0.88 0.90 0.93 0.95 0.94 0.92 0.90 0.90 0.89 0.85 0.86 0.84 0.85 0.87 0.85 0.84 0.82 0.82 0.83 0.83 0.82 0.80 0.80 0.80 0.79 0.79 0.78 0.76 0.76 0.77 0.77 0.77 0.77 0.77 0.77 0.78 0.80
0.31 0.33 0.30 0.29 0.25 0.28 0.36 0.37 0.35 0.33 0.32 0.29 0.33 0.39 0.41 0.42 0.43 0.42 0.40 0.39 0.33 0.34 0.32 0.29 0.29 0.41 0.50 0.60 0.58 0.63 0.70 0.74 0.76 0.77 0.78 0.80 0.82 0.82 0.80 0.81 0.82 0.83 0.84 0.84 0.83 0.83 0.83 0.83 0.84 0.87 0.91 0.94 0.95 0.94 0.94 0.93 0.91 0.87 0.86 0.85 0.85 0.86 0.84 0.83 0.83 0.83 0.83 0.83 0.83 0.81 0.81 0.81 0.80 0.79 0.78 0.77 0.76 0.76 0.76 0.76 0.77 0.77 0.77 0.76 0.79 0.82
0.32 0.30 0.30 0.32 0.25 0.28 0.32 0.34 0.34 0.29 0.21 0.23 0.43 0.50 0.47 0.41 0.43 0.38 0.36 0.38 0.40 0.36 0.32 0.36 0.40 0.51 0.56 0.60 0.58 0.59 0.63 0.67 0.72 0.79 0.83 0.79 0.78 0.79 0.82 0.82 0.83 0.84 0.84 0.83 0.82 0.81 0.82 0.84 0.87 0.90 0.93 0.95 0.97 0.97 0.97 0.96 0.91 0.89 0.88 0.86 0.86 0.84 0.83 0.81 0.82 0.83 0.83 0.83 0.82 0.82 0.82 0.82 0.81 0.79 0.79 0.78 0.77 0.76 0.76 0.75 0.75 0.77 0.79 0.79 0.81 0.81
0.29 0.29 0.30 0.33 0.28 0.28 0.33 0.32 0.27 0.21 0.22 0.39 0.47 0.53 0.56 0.54 0.52 0.48 0.46 0.46 0.45 0.44 0.41 0.42 0.48 0.53 0.58 0.61 0.62 0.65 0.70 0.76 0.81 0.80 0.82 0.86 0.84 0.80 0.82 0.82 0.83 0.82 0.81 0.81 0.81 0.81 0.83 0.86 0.89 0.92 0.94 0.95 0.96 0.96 0.95 0.93 0.90 0.88 0.86 0.85 0.82 0.82 0.80 0.80 0.81 0.82 0.82 0.82 0.82 0.82 0.82 0.82 0.82 0.80 0.79 0.78 0.77 0.76 0.75 0.75 0.77 0.78 0.79 0.80 0.81 0.81
0.29 0.27 0.29 0.29 0.33 0.34 0.30 0.28 0.20 0.20 0.35 0.44 0.48 0.54 0.60 0.57 0.56 0.52 0.46 0.49 0.50 0.49 0.46 0.42 0.49 0.55 0.60 0.64 0.70 0.73 0.73 0.77 0.81 0.83 0.85 0.88 0.90 0.87 0.83 0.82 0.83 0.83 0.81 0.82 0.81 0.83 0.85 0.87 0.90 0.92 0.93 0.96 0.95 0.94 0.93 0.88 0.88 0.85 0.82 0.83 0.81 0.80 0.80 0.80 0.80 0.79 0.80 0.80 0.81 0.82 0.83 0.83 0.82 0.81 0.80 0.78 0.77 0.76 0.75 0.75 0.76 0.77 0.79 0.80 0.82 0.83
0.34 0.32 0.29 0.26 0.32 0.24 0.25 0.25 0.25 0.37 0.33 0.38 0.39 0.44 0.49 0.44 0.47 0.45 0.36 0.43 0.53 0.55 0.52 0.49 0.53 0.56 0.61 0.66 0.70 0.73 0.77 0.77 0.73 0.75 0.84 0.83 0.88 0.91 0.88 0.86 0.87 0.87 0.87 0.88 0.88 0.87 0.90 0.95 0.94 0.93 0.94 0.93 0.92 0.89 0.87 0.87 0.85 0.83 0.81 0.80 0.79 0.78 0.79 0.79 0.78 0.78 0.79 0.80 0.82 0.83 0.84 0.85 0.83 0.81 0.80 0.79 0.77 0.75 0.75 0.76 0.76 0.78 0.81 0.80 0.81 0.81
0.39 0.30 0.32 0.26 0.28 0.31 0.24 0.22 0.24 0.23 0.18 0.25 0.38 0.50 0.60 0.62 0.61 0.59 0.49 0.43 0.57 0.59 0.60 0.54 0.52 0.55 0.59 0.63 0.67 0.71 0.73 0.64 0.57 0.63 0.75 0.81 0.86 0.87 0.88 0.89 0.90 0.90 0.91 0.90 0.90 0.89 0.90 0.94 0.94 0.94 0.91 0.89 0.87 0.87 0.86 0.85 0.84 0.82 0.80 0.79 0.78 0.77 0.77 0.77 0.76 0.78 0.80 0.81 0.83 0.84 0.86 0.86 0.84 0.82 0.80 0.79 0.77 0.76 0.76 0.77 0.78 0.78 0.80 0.79 0.79 0.79
0.41 0.39 0.36 0.28 0.30 0.28 0.25 0.21 0.20 0.17 0.20 0.32 0.40 0.51 0.60 0.65 0.64 0.63 0.46 0.36 0.56 0.62 0.62 0.59 0.57 0.58 0.57 0.58 0.63 0.68 0.62 0.50 0.51 0.60 0.73 0.80 0.83 0.86 0.85 0.88 0.89 0.88 0.88 0.88 0.86 0.87 0.89 0.91 0.91 0.89 0.88 0.87 0.84 0.86 0.86 0.85 0.83 0.80 0.77 0.77 0.76 0.76 0.75 0.75 0.77 0.78 0.79 0.81 0.84 0.86 0.86 0.86 0.85 0.83 0.81 0.79 0.79 0.78 0.77 0.78 0.78 0.79 0.80 0.79 0.79 0.79
0.37 0.35 0.34 0.29 0.28 0.29 0.26 0.22 0.20 0.24 0.25 0.38 0.50 0.57 0.62 0.66 0.63 0.54 0.30 0.30 0.54 0.63 0.63 0.61 0.59 0.62 0.63 0.63 0.63 0.61 0.54 0.45 0.49 0.61 0.76 0.82 0.84 0.86 0.85 0.84 0.84 0.84 0.85 0.87 0.88 0.90 0.90 0.89 0.87 0.86 0.85 0.84 0.84 0.86 0.85 0.83 0.80 0.77 0.75 0.74 0.75 0.73 0.73 0.75 0.77 0.80 0.82 0.83 0.84 0.85 0.85 0.85 0.84 0.83 0.82 0.80 0.80 0.80 0.79 0.80 0.80 0.79 0.79 0.78 0.78 0.78
0.33 0.33 0.32 0.28 0.28 0.30 0.27 0.26 0.28 0.30 0.41 0.52 0.56 0.62 0.64 0.65 0.56 0.35 0.26 0.38 0.60 0.66 0.66 0.65 0.63 0.66 0.68 0.66 0.67 0.58 0.62 0.64 0.66 0.74 0.80 0.83 0.83 0.82 0.84 0.86 0.85 0.85 0.84 0.85 0.86 0.88 0.86 0.86 0.86 0.85 0.84 0.85 0.85 0.84 0.82 0.80 0.77 0.74 0.74 0.74 0.73 0.72 0.74 0.78 0.80 0.81 0.81 0.81 0.82 0.82 0.83 0.84 0.83 0.83 0.82 0.82 0.81 0.81 0.80 0.81 0.80 0.79 0.78 0.77 0.77 0.76
0.33 0.33 0.33 0.34 0.30 0.28 0.30 0.26 0.27 0.34 0.46 0.56 0.62 0.62 0.67 0.54 0.35 0.31 0.45 0.61 0.66 0.66 0.70 0.69 0.66 0.69 0.72 0.72 0.71 0.69 0.70 0.76 0.81 0.85 0.85 0.85 0.83 0.82 0.82 0.84 0.85 0.85 0.87 0.87 0.86 0.85 0.84 0.84 0.84 0.84 0.84 0.84 0.83 0.82 0.81 0.79 0.75 0.74 0.74 0.73 0.72 0.74 0.78 0.78 0.78 0.78 0.78 0.79 0.80 0.81 0.82 0.83 0.84 0.84 0.83 0.82 0.82 0.80 0.79 0.80 0.80 0.79 0.77 0.77 0.76 0.74
0.33 0.29 0.29 0.29 0.33 0.34 0.32 0.28 0.26 0.22 0.42 0.58 0.59 0.56 0.61 0.43 0.44 0.56 0.60 0.64 0.69 0.69 0.69 0.69 0.70 0.70 0.73 0.71 0.73 0.73 0.76 0.78 0.78 0.79 0.81 0.83 0.83 0.82 0.81 0.83 0.82 0.83 0.83 0.82 0.82 0.84 0.83 0.81 0.81 0.82 0.82 0.83 0.83 0.82 0.80 0.78 0.74 0.73 0.73 0.71 0.72 0.75 0.76 0.76 0.77 0.77 0.78 0.78 0.79 0.80 0.81 0.82 0.83 0.83 0.83 0.82 0.81 0.80 0.78 0.79 0.78 0.77 0.77 0.76 0.75 0.74
0.45 0.31 0.32 0.33 0.37 0.27 0.27 0.23 0.24 0.35 0.49 0.60 0.55 0.43 0.53 0.57 0.65 0.65 0.64 0.61 0.69 0.71 0.70 0.70 0.71 0.73 0.74 0.72 0.71 0.74 0.76 0.74 0.76 0.77 0.78 0.80 0.83 0.84 0.82 0.82 0.82 0.83 0.83 0.83 0.82 0.82 0.83 0.81 0.81 0.81 0.81 0.81 0.81 0.80 0.79 0.76 0.72 0.71 0.70 0.69 0.74 0.75 0.76 0.76 0.76 0.77 0.77 0.77 0.78 0.79 0.80 0.81 0.81 0.82 0.81 0.80 0.80 0.79 0.78 0.77 0.77 0.76 0.76 0.76 0.75 0.73
0.47 0.40 0.40 0.33 0.42 0.34 0.31 0.36 0.47 0.52 0.56 0.62 0.62 0.59 0.64 0.67 0.68 0.68 0.66 0.65 0.64 0.68 0.75 0.71 0.70 0.74 0.75 0.74 0.74 0.74 0.71 0.75 0.75 0.77 0.76 0.78 0.81 0.80 0.79 0.80 0.80 0.79 0.79 0.79 0.80 0.83 0.83 0.81 0.79 0.79 0.79 0.79 0.77 0.77 0.77 0.75 0.71 0.70 0.68 0.71 0.74 0.74 0.74 0.74 0.74 0.75 0.74 0.74 0.76 0.77 0.78 0.79 0.80 0.80 0.80 0.79 0.79 0.76 0.76 0.75 0.75 0.74 0.74 0.74 0.72 0.71
0.55 0.53 0.54 0.46 0.43 0.51 0.52 0.54 0.57 0.55 0.56 0.61 0.65 0.66 0.63 0.65 0.69 0.67 0.66 0.65 0.69 0.72 0.75 0.72 0.74 0.74 0.75 0.77 0.73 0.72 0.73 0.76 0.78 0.78 0.79 0.79 0.78 0.79 0.79 0.79 0.80 0.80 0.80 0.80 0.81 0.82 0.82 0.81 0.80 0.78 0.75 0.75 0.75 0.75 0.75 0.74 0.73 0.69 0.69 0.72 0.73 0.73 0.73 0.73 0.73 0.73 0.72 0.73 0.74 0.74 0.75 0.75 0.75 0.77 0.77 0.77 0.77 0.75 0.75 0.72 0.72 0.71 0.70 0.69 0.67 0.66
0.54 0.55 0.50 0.42 0.49 0.41 0.35 0.51 0.53 0.53 0.57 0.59 0.60 0.64 0.66 0.68 0.68 0.69 0.68 0.69 0.71 0.74 0.75 0.78 0.79 0.77 0.76 0.78 0.75 0.72 0.74 0.79 0.77 0.78 0.81 0.80 0.78 0.77 0.77 0.77 0.79 0.79 0.78 0.79 0.81 0.81 0.80 0.79 0.76 0.74 0.73 0.71 0.73 0.73 0.73 0.71 0.71 0.69 0.69 0.69 0.69 0.69 0.70 0.70 0.70 0.70 0.71 0.71 0.72 0.73 0.73 0.71 0.71 0.71 0.72 0.73 0.73 0.72 0.71 0.70 0.67 0.64 0.62 0.61 0.59 0.57
0.44 0.58 0.47 0.46 0.45 0.40 0.41 0.51 0.56 0.59 0.60 0.62 0.61 0.59 0.60 0.64 0.67 0.70 0.72 0.74 0.75 0.78 0.78 0.78 0.80 0.74 0.79 0.77 0.77 0.75 0.75 0.79 0.78 0.78 0.79 0.79 0.77 0.77 0.76 0.77 0.77 0.77 0.79 0.81 0.81 0.80 0.79 0.77 0.74 0.73 0.71 0.70 0.70 0.69 0.66 0.65 0.64 0.64 0.63 0.63 0.64 0.66 0.67 0.68 0.69 0.69 0.69 0.70 0.70 0.70 0.70 0.69 0.69 0.68 0.67 0.67 0.66 0.64 0.63 0.61 0.60 0.57 0.55 0.53 0.51 0.49
0.52 0.55 0.41 0.47 0.42 0.46 0.51 0.55 0.57 0.58 0.59 0.60 0.62 0.63 0.65 0.66 0.67 0.69 0.71 0.73 0.76 0.77 0.79 0.82 0.87 0.83 0.81 0.79 0.79 0.77 0.75 0.74 0.76 0.79 0.78 0.79 0.77 0.76 0.76 0.77 0.77 0.76 0.76 0.76 0.78 0.78 0.76 0.75 0.73 0.72 0.70 0.68 0.67 0.65 0.64 0.63 0.63 0.63 0.61 0.60 0.60 0.60 0.60 0.62 0.64 0.66 0.66 0.67 0.67 0.66 0.66 0.65 0.64 0.63 0.61 0.60 0.59 0.59 0.57 0.55 0.53 0.51 0.50 0.51 0.49 0.46
0.51 0.43 0.52 0.48 0.40 0.40 0.40 0.45 0.53 0.42 0.43 0.54 0.60 0.63 0.65 0.69 0.69 0.69 0.69 0.69 0.72 0.74 0.77 0.77 0.78 0.82 0.84 0.82 0.80 0.80 0.77 0.78 0.79 0.79 0.78 0.79 0.77 0.78 0.79 0.78 0.78 0.76 0.76 0.78 0.78 0.77 0.76 0.75 0.73 0.71 0.69 0.67 0.67 0.64 0.63 0.62 0.62 0.62 0.62 0.61 0.60 0.58 0.55 0.55 0.56 0.57 0.58 0.60 0.60 0.60 0.59 0.58 0.57 0.56 0.54 0.53 0.52 0.50 0.50 0.52 0.51 0.48 0.44 0.42 0.43 0.42
0.47 0.48 0.48 0.42 0.41 0.40 0.50 0.55 0.57 0.56 0.56 0.60 0.63 0.66 0.69 0.71 0.71 0.69 0.67 0.68 0.70 0.73 0.75 0.75 0.75 0.77 0.78 0.80 0.82 0.80 0.78 0.79 0.78 0.79 0.78 0.80 0.79 0.81 0.81 0.80 0.78 0.77 0.75 0.75 0.73 0.72 0.72 0.71 0.70 0.69 0.68 0.67 0.66 0.64 0.63 0.62 0.62 0.62 0.62 0.62 0.60 0.57 0.54 0.52 0.51 0.51 0.51 0.52 0.52 0.52 0.51 0.50 0.49 0.49 0.48 0.47 0.46 0.44 0.41 0.40 0.42 0.43 0.42 0.40 0.38 0.37
Wind_Speed
30 30 32 33 32 32 30 29 27 24 23 22 21 21 21 21 21 20 20 20 19 19 21 22 21 20 20 22 22 22 22 21 21 22 23 22 21 21 19 18 17 17 17 16 15 15 15 15 14 14 13 13 13 12 12 13 13 13 13 13 12 12 11 11 10 10 10 9 8 8 8 7 7 8 8 9 9 9 10 11 11 11 12 12 12 13
30 32 33 32 31 30 29 28 27 26 24 22 21 20 21 21 21 20 20 20 19 19 21 20 20 22 21 22 23 23 22 21 22 23 23 22 22 21 19 18 17 17 17 16 16 15 15 14 14 14 13 13 13 12 13 13 13 13 13 12 12 11 11 11 10 10 10 9 9 8 8 7 8 8 9 9 10 10 11 12 12 12 13 13 14 14
31 32 32 31 29 29 28 28 27 26 25 24 22 20 20 20 19 19 19 19 18 19 20 18 20 21 20 21 23 23 23 22 23 24 23 24 23 21 20 18 18 17 17 17 16 16 16 15 15 14 13 13 13 13 13 13 13 13 12 12 12 11 11 11 10 10 10 9 9 9 8 8 8 9 9 10 11 11 12 12 13 13 14 14 15 16
30 31 31 30 29 28 28 28 28 27 26 25 23 22 21 19 18 18 18 18 18 18 18 18 19 20 18 20 23 24 25 24 24 24 24 25 24 23 22 20 19 18 17 17 17 16 16 16 15 14 14 13 13 13 13 13 13 12 12 12 11 11 11 10 10 10 10 9 9 9 9 9 10 10 10 11 11 12 13 13 14 14 15 15 16 17
29 28 29 30 29 29 29 28 28 27 26 26 25 23 21 19 18 18 17 17 16 17 17 16 17 19 20 20 21 23 24 23 24 24 23 24 23 22 22 21 20 19 18 18 17 17 16 16 15 15 14 13 13 13 13 13 13 12 12 12 11 11 10 10 10 10 10 9 9 9 10 10 10 11 11 12 13 14 14 14 15 15 16 16 17 17
30 27 28 30 29 30 30 29 29 28 26 25 25 24 22 20 18 18 16 15 14 15 17 16 15 18 20 20 21 22 22 23 23 23 23 23 21 22 22 22 21 20 19 18 17 16 16 16 16 16 15 14 14 14 14 13 13 12 12 12 11 11 10 10 10 10 10 10 10 10 11 11 11 12 13 14 15 16 16 16 16 16 17 17 18 18
30 28 27 29 30 30 30 30 29 28 26 25 25 24 22 20 19 18 16 15 14 15 16 16 16 17 17 18 20 21 23 24 23 23 24 23 22 23 23 22 21 21 19 18 17 16 16 16 17 16 16 16 15 15 14 14 13 12 12 12 11 11 10 10 10 10 10 10 11 11 12 12 12 13 14 15 16 16 17 17 17 17 18 18 18 19
30 30 28 28 30 31 31 30 29 28 26 25 25 23 22 20 20 19 17 17 16 16 16 15 16 17 17 18 18 20 23 23 23 24 24 23 23 24 24 23 22 21 20 19 18 17 17 17 18 17 18 17 16 16 15 14 13 13 12 12 12 11 11 10 10 11 11 11 12 13 13 13 14 14 15 16 16 16 17 17 18 18 18 19 19 19
28 31 30 28 29 31 32 30 29 28 26 25 23 22 22 21 21 20 19 18 16 15 17 17 16 16 17 17 16 18 22 23 24 24 24 23 24 24 24 23 22 21 21 19 19 18 17 18 19 19 19 18 18 17 16 15 14 13 12 12 11 11 11 11 11 12 12 12 13 13 14 14 14 15 15 16 16 17 17 18 19 19 19 19 20 20
26 30 31 29 29 30 30 29 28 29 26 24 22 20 21 21 20 19 19 18 16 17 20 20 18 17 17 17 16 16 21 23 23 22 22 22 23 24 24 23 22 21 21 20 19 18 17 18 19 19 19 19 18 17 16 15 14 13 12 12 11 11 11 11 11 12 12 12 12 13 13 14 15 15 16 16 17 17 18 18 19 19 19 20 21 21
26 27 29 30 29 28 28 28 28 29 26 22 21 20 20 20 19 19 19 18 17 18 21 21 19 18 17 17 18 18 19 21 21 21 21 21 22 23 23 22 22 22 21 20 19 18 17 17 17 17 18 18 18 17 16 15 14 13 12 12 11 11 11 11 12 12 12 12 13 13 14 14 15 16 16 16 17 18 18 18 19 19 20 20 21 21
27 26 27 29 29 27 26 27 28 27 26 23 21 22 21 19 19 19 19 19 19 20 21 20 19 19 18 17 18 19 19 20 21 21 21 21 22 23 23 22 22 22 20 20 19 19 17 15 14 14 14 15 15 15 14 14 14 13 12 12 11 11 12 12 12 12 13 13 13 14 14 15 15 16 16 16 17 18 18 19 19 19 20 20 20 21
30 27 25 26 29 29 27 27 27 27 27 26 23 23 22 20 19 20 20 20 21 21 19 18 17 19 20 19 18 18 18 20 22 22 23 23 23 23 23 22 22 21 20 20 19 19 17 16 15 14 14 13 12 12 12 13 13 13 12 12 12 12 13 13 12 13 13 13 14 14 14 15 15 16 16 17 17 18 19 19 19 20 20 20 21 21
29 28 27 27 28 30 29 28 28 28 29 29 28 26 24 21 20 21 21 20 20 21 19 17 17 18 19 19 19 19 19 20 21 21 22 23 23 23 22 22 21 21 21 20 20 19 18 17 16 15 14 13 11 10 11 12 13 13 13 13 13 13 13 13 13 13 13 13 14 14 14 15 15 16 17 18 18 19 19 19 20 20 20 21 21 21
28 28 29 29 27 29 31 30 28 27 28 29 28 27 26 24 22 21 21 21 20 20 19 18 18 18 18 17 18 19 19 19 19 19 19 20 21 22 21 21 21 20 20 19 19 18 17 16 16 16 15 13 12 11 11 11 12 13 14 14 13 13 13 13 14 14 14 14 14 14 15 16 16 17 18 18 19 19 20 20 20 20 20 21 21 21
28 28 27 28 28 29 30 29 27 26 26 27 27 27 29 28 23 18 19 22 21 18 18 19 19 18 18 18 17 18 18 17 17 18 19 19 20 21 20 20 20 19 19 19 18 17 16 15 15 15 14 13 13 13 12 11 12 13 14 14 13 13 14 14 14 15 15 14 14 15 15 17 17 18 19 19 20 20 20 20 20 20 20 21 21 22
26 26 25 26 26 28 29 28 28 27 26 25 27 30 30 27 22 18 18 19 19 19 19 19 19 18 17 17 17 17 17 17 17 19 20 20 20 20 19 19 19 19 19 18 17 17 16 14 13 13 13 13 13 13 13 12 13 13 14 14 13 13 13 14 14 14 14 15 15 16 17 18 19 19 20 20 20 20 20 20 20 20 21 21 21 22
24 23 25 26 26 27 28 26 27 28 26 24 28 30 26 23 23 21 19 17 17 19 20 19 20 19 17 17 18 18 18 18 18 19 20 20 20 20 19 19 19 18 19 18 18 17 16 14 13 12 12 13 13 13 13 13 13 13 13 14 14 14 14 14 14 14 15 15 16 17 18 19 20 20 20 20 20 20 20 20 20 20 21 21 21 22
22 21 23 26 26 25 26 25 26 28 27 25 26 26 25 24 25 24 22 19 19 20 19 19 21 21 20 20 20 20 19 19 19 19 19 20 20 20 20 19 19 19 18 18 18 17 16 15 14 13 12 12 12 13 13 13 13 13 14 14 14 15 15 15 15 15 16 17 18 18 19 19 20 20 20 20 20 19 19 19 20 20 20 20 21 21
20 19 19 24 26 23 24 26 27 27 27 25 24 25 26 25 25 25 24 21 20 20 19 19 20 21 22 22 21 21 21 20 20 20 20 20 21 21 21 20 20 19 19 18 18 17 16 15 14 13 12 12 12 13 13 13 13 14 15 15 15 15 15 15 16 16 16 17 18 18 18 19 19 20 20 19 19 18 18 19 19 19 19 19 20 20
19 20 18 20 24 24 25 27 28 27 27 27 27 26 27 26 24 24 24 22 20 19 19 19 20 22 22 22 22 22 22 21 20 19 19 20 21 21 21 21 21 20 19 19 19 17 16 15 14 13 12 12 12 13 14 14 15 16 16 16 16 16 15 15 15 16 16 16 17 17 17 18 19 19 19 18 18 18 18 18 18 19 19 19 19 20
20 20 18 18 22 25 25 26 27 27 27 27 28 28 28 26 25 24 24 24 22 19 19 20 20 21 22 21 21 22 21 20 20 19 18 19 20 21 22 22 22 21 20 19 19 17 16 16 15 14 13 13 13 14 14 15 16 16 16 16 15 14 14 14 14 15 15 15 16 16 17 17 18 18 18 17 17 18 18 18 18 19 19 19 19 20
21 20 19 18 21 24 24 24 25 26 25 25 26 27 27 26 26 25 24 25 24 20 19 18 18 20 21 21 21 21 20 20 19 19 18 19 20 21 22 22 22 21 20 20 19 18 18 17 16 15 14 14 14 14 14 15 15 15 15 15 14 14 13 13 14 14 14 14 15 16 16 17 17 17 17 17 17 17 18 18 18 18 19 19 19 19
22 20 19 18 19 21 21 21 22 23 23 24 25 25 26 26 27 26 24 24 24 23 21 18 18 19 20 20 20 20 20 20 20 20 19 19 21 22 22 22 22 22 21 20 20 20 19 18 17 15 15 14 13 13 14 14 15 15 15 14 14 13 13 14 14 15 14 14 15 15 16 16 17 17 17 17 17 17 17 17 18 18 18 18 19 19
23 21 20 18 17 18 19 19 20 22 23 24 25 25 25 25 25 25 24 22 22 25 25 22 20 20 20 20 20 20 20 20 20 20 21 21 22 23 23 22 22 22 21 21 21 20 20 19 18 17 16 15 14 14 14 14 14 14 14 14 14 13 14 14 14 15 14 14 15 15 16 16 17 16 16 16 16 16 17 17 18 18 18 18 18 19
23 22 21 20 18 19 20 20 21 22 23 23 23 24 24 24 25 25 24 23 22 23 24 24 22 21 21 21 22 22 21 21 21 22 21 22 22 23 23 23 22 22 21 22 21 21 21 20 19 18 17 16 15 15 15 14 14 14 14 14 14 14 14 14 14 14 14 14 15 15 16 16 16 15 15 15 15 16 17 17 18 18 18 18 18 18
22 21 22 21 20 20 19 19 21 21 21 22 22 22 22 23 24 23 23 24 24 22 22 24 24 23 23 23 23 23 23 22 23 23 23 22 23 23 22 22 22 22 21 21 21 21 21 21 20 19 17 17 16 15 15 15 14 14 14 14 14 14 14 14 14 14 14 15 15 15 15 15 14 14 14 15 15 16 17 17 17 18 18 18 18 18
21 22 22 21 20 20 19 18 19 19 20 22 21 21 21 22 22 23 23 24 24 23 22 23 23 24 25 24 24 24 24 23 23 25 24 24 24 23 23 22 22 21 21 21 21 21 20 20 20 18 18 17 16 15 15 14 14 14 14 14 14 14 14 14 14 13 14 14 15 15 14 13 13 13 14 14 15 15 16 16 16 16 17 17 17 18
21 22 22 20 19 19 18 18 18 18 19 20 20 20 19 20 22 23 24 24 23 23 24 24 24 25 24 25 25 24 24 23 23 25 25 25 24 24 23 22 22 22 22 21 21 20 20 20 19 18 18 18 17 15 15 14 14 14 14 14 14 13 14 14 14 13 14 14 14 14 14 13 13 13 14 14 14 14 14 15 15 16 16 17 17 17
20 20 21 21 19 18 18 18 18 18 18 18 18 19 19 20 22 22 22 22 22 21 22 23 23 23 22 23 25 24 23 23 23 24 24 24 24 24 23 22 22 22 22 21 20 20 20 20 19 18 18 18 17 16 15 14 14 14 14 14 14 13 13 13 13 13 13 13 13 13 13 13 13 13 13 13 13 13 14 14 15 15 15 16 16 16
19 20 21 21 19 17 18 18 18 18 18 17 17 17 17 18 20 20 21 21 20 19 19 19 20 21 20 20 22 23 24 24 24 24 24 24 24 23 22 21 20 20 20 20 19 19 19 19 19 19 18 17 16 16 15 15 15 15 15 14 14 13 13 13 13 13 12 12 13 13 13 12 13 13 12 12 12 12 13 14 14 14 15 15 16 16
18 19 20 20 19 18 18 18 18 18 17 17 17 17 17 18 20 21 22 22 21 20 19 19 20 21 21 21 21 22 23 24 24 25 25 24 24 22 21 20 20 20 20 19 18 17 17 18 19 18 18 17 16 16 15 15 15 15 15 14 14 13 13 13 13 13 12 12 13 12 12 12 12 12 12 12 12 12 13 13 14 14 15 15 16 16
19 19 19 20 19 18 18 18 18 17 16 17 19 19 19 19 20 21 22 22 22 22 21 20 20 20 21 21 21 22 23 23 24 24 24 24 23 22 21 20 20 20 19 18 18 17 17 17 17 17 17 16 16 16 16 15 15 15 15 14 13 13 13 13 13 12 12 12 12 12 12 12 12 11 12 12 12 12 12 13 13 14 14 15 15 15
17 19 19 19 19 19 19 18 16 16 17 19 20 20 20 20 20 20 22 22 22 21 21 20 18 19 21 22 22 22 22 22 23 23 23 23 23 22 21 20 19 19 18 18 18 17 17 17 16 16 16 16 16 16 15 15 14 14 14 13 13 13 14 13 13 12 12 12 12 11 11 11 11 11 11 11 12 12 12 13 13 13 13 14 14 14
16 17 19 19 18 18 18 16 16 18 19 19 19 20 21 20 18 18 19 21 21 21 21 20 19 19 19 20 21 21 20 20 20 21 21 22 22 22 21 20 19 18 19 19 19 18 17 16 15 15 16 16 16 15 14 14 14 14 14 14 14 14 14 13 13 12 12 12 12 12 11 11 11 11 11 11 12 12 12 12 12 13 13 13 13 13
16 17 18 18 18 17 17 16 17 18 18 17 18 19 20 20 19 17 18 20 21 21 22 22 20 19 18 18 19 20 19 19 19 19 20 20 20 19 19 19 19 18 18 18 18 17 17 17 16 16 16 15 15 14 14 14 13 13 13 13 14 13 13 13 13 12 12 12 12 12 12 12 11 11 11 11 11 12 12 12 12 12 13 13 12 12
15 16 17 17 17 17 17 17 17 16 16 17 18 19 19 20 20 19 19 20 21 22 23 23 21 20 18 18 19 20 20 19 18 18 20 20 19 18 17 17 17 16 17 17 17 16 16 17 17 16 15 15 14 14 14 13 13 13 12 13 13 13 13 13 12 12 12 12 12 12 12 12 12 11 11 11 11 11 11 12 12 12 12 12 11 11
13 15 17 16 16 16 16 15 15 15 16 18 19 19 18 19 19 19 19 20 20 22 24 24 22 21 20 19 20 20 20 20 20 20 21 21 20 19 17 16 15 15 15 16 16 16 16 16 16 15 14 14 13 13 13 12 12 12 12 12 12 12 12 12 12 12 12 12 12 12 12 12 11 11 10 10 10 11 11 11 11 11 11 11 11 10
11 13 15 15 15 16 16 15 16 16 17 17 18 18 18 18 18 17 17 20 21 21 23 23 22 22 21 21 21 22 21 21 22 22 22 22 21 20 19 17 16 15 15 15 15 16 16 16 15 14 13 13 13 12 12 11 11 11 11 11 11 11 11 11 11 11 12 12 12 12 12 11 11 11 10 10 10 10 10 10 10 10 10 10 10 9
11 12 13 14 15 16 16 15 15 16 16 15 16 18 19 19 17 16 16 19 21 22 23 24 23 22 22 21 21 21 21 21 21 21 22 22 20 19 19 18 18 17 16 15 15 16 16 15 14 14 13 12 12 11 10 10 10 10 10 10 10 10 11 11 11 11 11 11 11 11 11 11 11 10 9 9 9 9 9 9 9 9 9 9 9 9
12 13 13 14 14 14 15 15 14 15 15 15 15 18 19 18 17 17 17 17 19 21 22 24 24 24 23 22 21 19 18 17 18 20 21 21 20 19 19 18 17 17 17 16 16 16 16 15 14 13 12 11 11 10 10 10 9 9 9 9 9 10 10 10 10 10 10 10 10 10 10 10 10 9 9 9 9 9 9 9 9 9 9 9 9 9
14 13 13 13 14 14 15 14 13 14 15 15 15 16 18 17 17 18 17 16 18 21 22 22 22 22 22 21 19 17 16 17 18 19 19 20 20 20 19 18 17 16 16 17 17 17 16 14 14 13 12 11 10 9 9 9 8 8 8 8 8 9 9 9 8 8 8 9 9 9 9 9 9 9 8 9 9 8 8 8 8 8 8 8 8 8
16 15 14 14 14 13 13 13 13 14 15 15 14 14 15 16 17 16 15 15 18 20 21 21 21 20 20 19 17 17 18 19 19 18 18 19 20 20 20 19 18 17 17 17 17 17 16 14 13 12 11 10 9 9 9 8 7 7 7 7 7 8 8 8 8 8 8 8 8 8 8 8 8 8 8 8 8 8 8 8 8 8 8 9 9 8
15 15 15 16 15 14 14 14 14 13 14 15 15 15 14 14 15 15 14 15 17 19 21 21 20 19 19 19 18 19 20 19 19 18 18 19 19 20 19 19 18 18 18 18 17 17 16 14 12 11 10 10 9 9 9 8 7 6 6 6 7 7 7 7 7 7 7 7 7 7 7 7 7 7 7 7 7 7 7 7 7 8 8 8 8 7
13 15 15 15 15 15 15 15 14 13 12 13 14 15 14 13 13 14 14 15 16 18 20 20 19 19 19 19 20 19 19 19 19 18 19 19 19 19 19 19 18 18 17 17 17 16 15 14 12 11 11 10 9 9 9 8 7 6 6 6 7 7 7 7 7 7 6 7 7 7 7 6 6 6 6 6 6 6 6 7 7 7 7 7 6 6
13 14 14 14 14 14 13 13 14 13 12 11 13 13 13 13 13 13 14 15 15 16 19 20 20 19 20 20 20 19 18 19 19 19 19 19 19 19 19 19 19 18 17 17 16 15 15 14 13 12 11 10 10 9 9 8 7 7 6 7 7 7 7 6 6 6 6 6 6 6 5 5 5 5 5 5 5 5 5 6 5 5 5 5 5 5
11 12 12 13 14 14 13 13 13 13 12 12 12 12 12 12 13 13 14 15 15 15 18 20 20 20 20 21 22 21 20 20 20 20 20 20 19 19 19 19 19 18 17 17 16 15 14 13 13 12 11 10 10 10 9 9 8 7 7 7 7 7 7 6 6 6 5 5 5 5 5 4 4 4 4 4 4 4 4 4 4 3 3 4 4 4
9 10 11 12 13 13 12 12 12 12 12 12 13 13 12 12 12 13 14 14 14 15 17 19 20 20 20 21 22 23 22 21 20 21 21 21 20 19 18 18 18 18 17 16 16 15 14 13 13 12 11 10 10 10 9 8 8 7 7 7 7 7 7 6 6 5 5 4 4 4 4 4 4 4 3 3 3 2 2 3 3 2 3 3 4 4
7 8 10 12 12 12 13 13 13 12 11 12 13 13 13 13 13 13 13 13 14 15 17 18 19 20 20 21 23 23 22 20 20 20 21 20 20 19 19 19 19 18 17 16 16 16 15 14 13 12 11 10 10 10 9 8 8 7 7 7 7 7 6 5 5 4 4 4 4 3 3 3 3 3 3 2 2 2 2 2 3 3 3 4 4 4
6 7 8 9 11 12 13 13 13 12 12 13 14 14 14 14 14 14 13 13 14 16 18 19 19 19 20 21 22 23 22 20 19 20 20 20 20 20 20 19 19 17 17 16 16 15 15 14 13 12 11 11 10 10 9 9 8 8 7 7 7 6 5 5 4 4 4 3 3 3 3 3 3 3 3 3 3 2 2 2 3 3 3 4 4 4
6 6 7 8 9 10 11 12 12 11 11 12 13 14 15 15 15 14 14 14 15 17 18 19 20 20 20 20 21 22 22 21 21 21 20 19 20 21 20 19 18 17 17 17 16 15 14 13 13 12 11 11 11 10 10 9 9 8 8 7 7 6 6 5 4 4 4 4 3 3 3 3 3 3 3 3 3 3 2 2 2 3 4 4 4 4
Wind_Direction
211 215 217 216 215 213 213 214 214 215 213 213 216 218 219 219 222 220 220 225 219 221 227 224 223 224 224 227 226 220 217 217 215 212 212 211 209 208 208 210 212 213 214 211 210 210 211 213 214 214 214 213 212 212 211 210 210 210 211 211 213 215 218 220 223 227 232 235 240 247 253 259 266 272 278 281 283 285 286 285 285 286 287 290 292 292
212 217 218 215 213 212 212 212 212 215 215 215 216 218 221 220 221 220 219 223 221 222 228 223 224 228 226 226 225 219 216 217 214 212 211 209 209 208 208 209 210 211 211 210 210 211 210 211 211 212 212 211 210 209 209 208 208 210 210 211 213 214 217 220 224 227 232 236 242 249 257 264 271 277 280 282 283 284 284 284 284 286 289 291 292 291
216 219 217 213 211 209 210 211 211 214 215 217 217 217 221 219 219 222 221 222 220 221 226 223 224 228 223 221 223 219 217 218 214 211 209 207 208 208 207 207 206 208 210 209 210 211 211 210 210 212 211 210 209 208 208 209 209 210 211 212 214 215 217 221 224 227 233 239 244 251 260 268 276 282 284 284 285 285 286 286 285 287 290 292 292 292
217 221 215 211 210 208 211 212 210 213 215 216 216 216 220 216 214 219 220 222 223 222 222 219 222 225 219 220 224 220 218 217 214 212 208 207 208 207 206 205 204 206 208 209 210 211 211 211 211 212 210 210 209 208 208 208 209 210 212 214 215 216 218 221 224 228 234 240 248 257 266 273 279 285 287 289 290 289 290 290 288 288 290 292 293 294
219 221 212 209 210 208 211 212 210 213 216 216 215 214 216 213 211 215 217 222 225 225 221 216 225 230 221 220 226 223 220 218 214 211 210 210 210 209 207 206 205 206 207 207 208 210 210 211 212 212 210 210 209 208 208 208 209 211 212 214 216 217 219 222 227 231 236 243 253 264 272 278 282 286 290 292 293 293 293 292 291 290 290 292 294 294
220 220 211 208 211 210 211 213 212 211 214 218 216 213 212 209 209 214 217 220 221 224 222 214 222 232 225 221 226 224 220 218 214 211 211 210 210 209 208 207 206 207 207 205 205 207 210 211 212 212 211 210 210 209 209 209 210 211 213 215 217 218 221 225 230 235 241 248 257 266 273 279 284 289 292 293 294 295 294 292 291 291 291 292 294 295
217 216 211 210 210 210 212 214 212 209 211 218 216 210 208 207 208 212 216 216 215 217 219 213 215 228 231 227 226 222 218 216 213 211 211 209 207 207 208 207 206 207 206 204 205 208 211 212 213 213 212 212 211 210 210 211 211 212 214 216 218 220 224 228 234 239 245 252 260 269 275 280 285 290 293 294 295 295 293 292 291 292 292 293 295 296
213 211 211 211 210 210 213 213 211 207 209 217 213 205 204 206 208 211 213 216 217 218 223 221 216 224 232 229 224 217 214 214 212 211 211 210 206 205 207 207 206 206 206 204 206 208 212 214 213 214 213 213 212 211 210 211 211 213 215 218 221 223 227 232 239 246 253 260 266 273 278 281 286 290 294 295 295 294 293 292 291 292 293 294 296 297
212 210 211 211 211 213 213 211 208 205 210 216 209 202 203 206 209 211 214 219 220 221 227 226 216 219 229 228 223 215 210 210 209 208 209 209 206 204 206 206 205 205 205 204 206 209 214 216 215 214 214 213 212 210 209 209 210 213 217 221 223 227 232 238 246 254 260 266 270 274 279 283 288 292 295 296 295 295 294 292 291 292 293 295 296 297
215 212 211 211 213 214 212 210 207 206 211 214 206 203 206 208 210 210 213 218 218 220 224 223 214 216 226 227 220 215 212 209 207 206 206 205 204 203 204 204 204 204 204 205 207 212 217 218 216 216 214 212 210 209 208 207 210 213 218 223 226 232 239 246 254 260 263 268 273 277 282 286 290 294 296 297 297 296 295 293 291 292 293 295 297 299
217 214 211 212 214 213 210 210 209 207 209 209 206 206 208 212 213 211 214 215 217 223 222 218 214 215 224 227 219 217 218 213 207 205 205 204 201 201 202 203 203 204 205 206 208 214 220 221 221 221 217 212 206 205 207 209 212 216 220 225 230 237 244 252 258 260 262 268 274 279 284 288 291 295 298 300 299 297 296 294 293 292 293 295 298 300
216 214 213 213 212 209 208 210 210 208 207 205 206 206 208 214 213 212 216 213 215 223 220 213 213 214 219 222 220 224 225 217 208 203 201 202 200 199 201 202 203 204 206 207 210 217 220 221 225 225 222 216 205 201 208 212 215 220 224 228 235 243 250 257 260 260 264 270 276 280 285 290 293 296 299 301 301 299 297 296 294 294 295 297 299 299
213 213 214 213 210 206 205 208 208 208 207 205 205 203 204 209 209 211 213 212 217 221 216 211 212 216 220 221 221 226 226 219 213 206 200 200 199 199 201 201 202 204 206 208 212 217 219 220 223 223 222 222 210 202 208 214 217 222 228 233 239 248 254 259 260 262 267 272 277 282 287 291 294 297 300 301 302 301 299 297 296 296 296 298 299 299
210 214 213 211 210 207 204 206 206 207 207 206 205 203 202 203 204 210 212 214 220 220 217 217 216 220 222 221 223 227 225 219 214 210 206 203 200 199 199 199 200 202 204 208 211 214 220 221 221 221 221 219 213 210 214 218 221 226 233 239 243 249 254 256 259 263 268 273 278 283 287 291 295 298 300 301 301 300 300 299 298 298 297 298 299 299
206 213 212 208 209 206 205 206 205 205 207 207 206 204 206 207 206 210 212 213 218 218 218 218 217 220 220 221 225 226 223 214 207 208 209 207 203 198 196 197 198 200 203 209 212 213 219 221 217 218 221 221 220 221 223 225 228 231 236 241 244 248 252 256 259 264 268 273 277 282 287 291 295 298 299 300 301 300 300 300 299 298 298 298 299 299
206 213 213 208 208 206 205 206 202 202 207 208 206 206 210 210 206 211 213 212 213 215 218 218 218 222 220 222 226 220 215 207 199 200 202 202 201 197 196 197 198 201 203 208 211 212 216 218 217 215 218 223 226 226 227 230 231 233 236 240 243 248 251 255 259 264 268 272 277 282 286 290 294 297 299 300 301 300 300 300 299 298 298 299 299 300
206 213 214 208 209 208 205 205 203 203 205 206 206 208 211 208 205 211 215 213 211 212 218 220 221 223 221 224 223 212 206 202 198 200 200 199 198 196 199 199 199 202 205 207 210 211 213 217 221 219 216 221 227 228 230 232 231 233 237 239 243 248 252 256 260 264 268 272 277 282 286 289 293 297 300 301 300 300 300 299 298 298 299 299 300 302
205 212 214 207 207 210 205 203 207 206 203 203 207 209 207 205 210 214 214 214 213 214 220 222 221 221 219 221 217 207 203 201 200 202 202 200 198 198 202 202 201 203 205 206 209 212 214 215 221 226 222 222 227 230 231 231 231 232 237 240 244 251 255 259 263 267 271 273 277 281 284 288 292 296 299 299 300 300 299 299 299 299 300 301 303 304
203 208 215 207 205 208 202 201 209 210 207 207 209 207 203 204 210 212 212 214 212 214 222 224 223 222 219 218 215 209 206 203 202 204 204 204 201 200 203 203 202 205 205 205 208 213 215 216 220 224 224 226 230 233 232 232 234 235 239 243 246 252 257 261 266 269 272 274 276 280 283 287 290 294 297 299 300 300 299 300 300 301 303 304 305 306
201 202 212 209 205 203 201 204 209 209 208 208 207 208 207 207 210 210 211 214 212 214 220 221 224 225 222 220 216 211 208 205 204 205 206 206 204 202 204 204 205 207 206 204 208 213 214 216 219 222 226 231 235 237 237 238 241 242 245 248 250 254 258 261 265 268 271 275 278 281 284 287 291 295 298 300 301 300 300 301 303 304 305 306 307 308
202 201 206 208 204 202 204 207 207 205 205 206 205 206 207 208 209 210 213 215 212 214 218 219 225 227 224 221 217 212 210 207 207 208 208 208 205 204 205 206 207 207 204 204 208 213 216 218 222 227 232 235 238 242 244 246 248 249 250 251 252 255 257 259 263 267 272 277 280 283 286 289 293 296 298 300 300 300 301 302 304 306 306 307 309 310
201 200 202 204 202 202 208 210 206 205 205 206 207 207 206 206 205 207 214 217 213 214 216 217 224 229 225 222 218 214 213 211 209 211 212 209 205 205 206 205 206 206 205 207 211 216 220 223 227 232 237 240 244 248 249 249 251 251 249 248 250 252 253 257 263 268 274 278 280 284 287 290 294 296 297 298 298 299 302 303 304 306 307 308 310 311
200 199 201 206 203 203 208 210 208 207 206 206 210 209 207 207 206 206 213 217 214 216 218 216 223 227 225 223 217 213 214 212 209 209 210 208 205 204 205 204 205 206 208 212 216 220 224 225 229 235 240 244 247 248 248 248 249 247 244 243 244 247 250 257 263 268 274 278 281 284 288 292 295 296 296 296 297 300 303 303 304 305 307 309 310 312
200 200 200 205 206 205 208 209 209 209 206 206 209 208 207 209 210 210 214 216 215 216 217 217 223 225 223 222 216 210 211 211 209 207 205 205 204 203 203 204 205 207 211 215 219 222 224 225 228 234 239 243 246 246 247 246 244 241 238 237 239 244 251 258 263 268 273 277 281 286 290 293 295 296 296 297 298 301 303 304 305 306 308 310 311 312
200 201 198 198 199 201 205 205 206 207 205 205 208 208 207 208 209 211 214 215 216 218 216 216 223 224 222 219 213 209 210 210 210 208 205 203 203 202 204 205 206 209 213 216 219 222 224 225 228 233 237 241 245 246 245 242 240 236 233 234 239 245 252 258 264 270 274 277 282 287 291 294 295 296 297 298 300 302 304 305 306 308 309 311 312 313
198 200 198 196 195 196 200 203 204 204 203 205 207 207 207 207 206 209 211 211 216 219 216 216 221 221 218 214 210 209 211 210 210 209 207 206 205 204 206 207 209 212 214 217 220 222 224 226 228 232 236 240 244 244 242 238 235 233 232 237 242 247 253 260 265 270 274 277 283 289 293 294 294 295 297 299 300 302 304 307 308 309 310 311 312 313
198 200 199 198 198 199 200 204 205 202 201 203 206 206 209 209 206 206 209 211 214 215 217 221 220 216 214 212 210 212 212 211 211 210 209 209 208 208 210 210 211 214 216 219 221 224 226 228 229 232 235 240 242 241 239 236 233 233 235 239 244 249 255 260 264 269 274 278 284 290 292 293 293 294 296 298 300 303 305 308 310 311 312 313 314 315
197 201 201 198 200 203 203 203 203 200 201 203 204 206 209 210 207 206 209 212 211 212 219 223 218 215 216 215 212 213 212 211 212 211 209 209 210 212 212 212 213 216 218 221 223 226 228 229 232 234 237 238 238 237 236 234 233 234 236 240 245 251 257 261 264 269 275 280 285 289 291 291 292 294 296 299 301 305 308 311 314 315 316 317 317 318
195 200 202 198 199 203 204 205 202 199 202 204 204 205 209 212 209 207 211 213 209 212 220 220 215 216 219 217 214 214 213 212 211 210 208 209 210 211 212 213 215 218 220 222 225 228 229 231 234 236 236 235 234 232 232 232 232 233 236 241 247 253 258 262 267 271 276 281 285 288 289 289 291 294 297 300 304 307 311 315 318 318 319 320 320 320
194 200 202 198 198 201 206 210 206 199 201 206 207 207 210 213 212 209 211 213 210 212 216 214 215 220 222 219 217 216 214 212 210 209 209 209 210 211 212 214 217 220 222 224 226 229 230 232 234 234 234 233 231 229 228 230 231 233 237 243 248 253 258 263 269 273 277 281 284 286 287 288 291 294 297 300 304 309 313 316 318 320 322 323 323 322
195 200 203 199 198 203 207 212 210 203 202 206 210 211 211 214 215 213 212 213 212 211 211 210 215 222 222 217 214 213 211 211 211 211 210 211 211 211 212 214 217 220 222 223 225 229 231 232 233 233 232 229 226 224 225 228 230 234 239 243 247 253 259 264 269 274 277 281 284 286 286 288 291 293 295 299 304 308 313 316 318 322 325 328 328 327
196 197 201 198 199 205 208 210 211 208 205 209 214 216 216 215 216 217 218 217 213 207 206 210 216 221 219 214 211 210 208 208 210 211 212 213 213 211 211 214 216 218 221 223 224 225 228 231 231 229 226 222 219 220 223 226 230 234 239 243 248 254 260 265 269 272 276 280 283 284 285 287 290 292 294 298 303 307 311 315 319 323 327 330 331 331
199 198 199 198 199 206 211 213 214 210 210 216 217 216 218 219 220 221 222 222 215 207 209 217 221 221 217 212 210 210 208 208 210 211 211 212 212 212 212 213 214 216 220 222 222 221 224 228 227 224 220 217 215 217 221 224 229 234 239 244 249 255 261 264 268 272 275 279 282 283 284 287 288 291 293 296 301 304 309 314 319 323 327 329 330 332
200 198 199 200 200 206 213 215 213 212 214 218 218 215 216 219 222 222 222 222 220 216 216 218 217 213 210 209 208 209 208 208 209 211 212 212 211 210 209 210 213 217 219 219 220 221 223 225 223 219 215 212 212 214 219 224 230 235 240 246 251 256 260 263 267 271 273 277 281 282 284 286 287 290 292 295 299 302 307 312 317 320 323 325 328 331
197 196 199 201 201 204 210 209 210 216 219 221 223 220 215 216 218 219 221 223 223 219 213 208 207 206 207 208 208 206 206 206 208 212 214 214 211 207 206 209 214 216 217 219 221 223 222 220 217 214 210 208 210 213 218 225 231 237 242 247 252 256 259 261 265 268 270 275 280 282 283 285 286 289 291 294 297 301 306 310 314 317 320 323 327 329
195 196 199 201 202 205 207 207 212 219 221 221 225 223 217 217 219 219 220 222 224 221 213 207 206 206 205 205 205 204 202 201 205 212 213 211 209 206 206 210 214 216 219 220 221 223 222 217 211 207 205 206 209 213 219 226 233 238 244 249 253 256 257 259 263 267 270 274 279 281 282 283 284 287 289 292 295 300 304 308 312 315 317 321 325 327
196 198 200 202 206 207 207 211 217 222 223 222 223 222 218 217 219 218 219 221 223 222 214 207 205 205 203 201 200 199 199 200 208 215 214 211 209 207 205 207 210 214 217 217 217 220 219 211 204 201 202 205 209 214 221 228 234 240 246 251 254 255 256 258 263 267 270 274 277 279 280 281 283 285 287 290 295 300 304 307 310 312 314 319 324 327
198 200 200 201 207 207 205 211 218 221 225 225 224 223 219 215 216 217 218 221 224 220 212 205 204 204 203 200 198 198 200 207 216 220 217 213 212 210 209 210 209 209 211 211 212 211 207 202 198 199 202 205 211 217 223 230 236 242 248 252 253 255 257 260 264 268 271 273 274 276 278 278 280 282 284 288 294 298 302 305 308 311 313 318 324 328
194 200 200 199 205 206 204 208 213 217 224 226 223 220 215 211 212 214 219 223 222 215 209 203 201 203 204 202 202 203 208 215 220 223 220 216 213 211 211 212 212 210 209 206 202 199 198 197 197 200 202 206 212 219 225 232 238 243 249 251 252 254 258 262 266 269 271 272 273 274 275 276 278 280 282 286 291 296 300 304 307 310 313 317 322 325
196 202 202 200 203 205 204 209 214 216 221 222 216 212 210 210 209 210 220 225 218 210 209 205 203 205 207 206 207 213 220 224 224 222 218 213 210 209 209 209 210 209 205 200 194 193 193 194 195 197 201 206 212 218 225 232 239 245 249 251 252 255 260 263 267 269 271 273 272 272 273 275 277 279 280 284 289 293 297 301 304 309 313 316 319 321
200 203 203 201 202 203 202 206 212 214 217 217 210 206 207 209 210 212 221 224 213 206 208 206 203 205 208 210 214 221 226 224 218 214 210 207 205 206 207 207 207 205 201 196 192 190 191 192 194 197 201 206 211 219 228 235 241 245 247 250 253 257 262 264 267 269 271 272 273 272 272 273 275 277 280 283 286 290 294 297 301 306 311 314 317 320
203 203 205 203 203 204 204 205 208 212 215 211 206 207 209 211 215 219 223 219 207 202 202 201 200 202 207 211 215 216 213 207 203 202 202 200 199 201 203 202 200 199 196 193 192 192 192 194 197 199 204 209 215 223 231 235 239 243 246 252 256 260 263 264 266 268 269 271 272 271 270 271 273 276 278 281 284 287 290 293 298 304 308 310 314 320
205 205 208 207 206 207 207 205 206 210 213 208 203 208 213 214 216 218 216 209 201 197 197 198 199 202 206 208 207 203 199 196 196 198 198 197 196 196 197 196 194 193 192 190 190 191 192 195 199 202 205 211 217 225 231 232 234 240 248 255 258 259 260 261 263 264 266 269 270 270 269 270 272 275 277 279 282 284 286 290 295 302 306 310 315 320
207 208 210 212 211 209 208 208 210 213 218 217 212 211 214 214 213 209 204 201 198 197 198 199 200 203 203 200 195 192 192 193 195 198 198 196 194 193 193 194 192 191 190 189 189 189 190 193 198 200 205 211 218 226 231 232 232 238 248 256 257 256 258 259 261 262 264 266 267 267 267 269 272 276 278 280 280 282 285 289 294 301 308 312 318 324
209 209 208 210 212 211 212 213 214 214 217 216 212 212 214 214 211 206 203 199 198 199 200 200 199 201 199 193 188 187 190 193 194 193 192 191 191 191 191 191 189 188 187 187 187 188 191 194 197 200 205 213 220 226 231 233 232 236 247 253 254 255 258 258 259 260 262 263 264 264 265 266 270 275 278 279 280 282 287 292 298 305 310 314 320 326
210 208 207 207 208 210 212 214 214 213 211 207 204 207 212 213 211 209 206 202 199 199 199 197 196 195 193 190 188 187 189 191 190 190 189 187 187 186 185 185 185 185 184 185 188 192 195 197 200 204 207 214 222 227 230 233 236 240 248 253 253 255 254 253 254 257 260 262 262 260 258 258 262 268 273 279 282 286 292 298 303 309 312 315 322 328
210 207 206 206 207 208 210 212 213 213 210 205 203 205 209 211 213 212 208 203 200 199 198 196 194 192 190 189 188 186 187 187 186 186 187 186 185 185 185 185 187 188 189 191 193 196 198 201 205 209 211 217 225 229 231 235 241 246 250 251 251 250 248 249 252 256 257 258 256 252 249 249 252 258 265 274 281 288 295 301 304 311 319 323 327 331
207 206 206 207 207 206 204 202 202 203 207 208 206 206 208 208 208 208 205 201 197 197 197 196 195 193 190 189 187 185 186 188 187 185 186 186 186 188 189 188 189 191 193 194 196 199 203 206 208 211 215 220 226 229 231 235 241 245 246 246 245 243 244 247 251 251 251 251 248 246 245 243 245 248 253 262 272 282 293 299 302 314 326 327 325 328
202 203 202 203 205 205 203 202 200 200 206 212 209 207 207 206 202 201 201 198 194 192 193 194 194 192 189 186 186 185 185 188 190 188 187 188 189 191 192 190 190 192 194 197 200 203 205 207 209 212 215 220 223 226 229 233 238 241 241 240 238 237 237 238 239 239 239 238 235 233 231 230 231 234 236 239 246 260 282 295 302 310 319 322 326 330
178 183 187 189 195 201 204 203 202 201 208 213 209 204 203 201 196 194 195 196 193 190 189 187 186 187 185 184 185 184 184 188 192 192 190 191 192 192 191 190 190 193 196 199 202 204 204 206 209 212 215 219 221 223 226 231 234 234 233 233 234 232 226 221 223 226 228 226 222 219 217 218 225 231 235 239 242 250 272 299 314 322 323 323 330 337
175 182 178 171 180 191 193 192 193 194 199 204 201 197 196 194 190 188 190 191 189 187 186 184 183 184 184 184 186 187 188 189 191 190 190 191 192 191 190 190 190 193 197 200 202 204 206 208 209 211 214 217 219 221 225 228 229 228 227 229 231 226 216 209 209 213 216 214 211 212 217 223 231 237 244 250 254 256 263 283 311 328 332 329 331 338